Location: *
(42.5628°N, 2.3633°E)
Time: 03:14:29
(UTC+00:00)

Cosmos 2278 Rocket - Pass Details

Date: 30 March 2020
Orbit: 839 x 847 km, 71.0° (Epoch: 31 May)

Event Time Altitude Azimuth Distance (km) Brightness Sun altitude
Rises 19:06:33 0° 328° (NNW) 3,412 6.2 -10.2°
Reaches altitude 10° 19:09:09 10° 320° (NW) 2,474 5.5 -10.7°
Maximum altitude 19:14:19 38° 255° (WSW) 1,276 3.7 -11.6°
Drops below altitude 10° 19:19:29 10° 189° (S) 2,462 4.5 -12.5°
Sets 19:22:04 0° 181° (S) 3,393 5.2 -12.9°
